Quillayute, WA

4:51 AM PDT on June 26, 2017 (GMT -0700)
Quillayute

Weather History for KUIL - April, 2014

Change the Weather History Date:

Thursday, April 24, 2014

  Actual Average Record
Temperature  
Mean Temperature 48 °F 48 °F  
Max Temperature 54 °F 56 °F 72 °F (1989)
Min Temperature 42 °F 39 °F 30 °F (2009)
Degree Days  
Heating Degree Days 17 17  
Month to date heating degree days 422 448  
Since 1 July heating degree days 4202 4941  
Cooling Degree Days 0 0  
Month to date cooling degree days 0 0  
Year to date cooling degree days 0 0  
Moisture  
Dew Point 46 °F    
Average Humidity 86    
Maximum Humidity 100    
Minimum Humidity 71    
Precipitation  
Precipitation 0.41 in 0.23 in 0.96 in (2012)
Month to date precipitation 8.66 6.55  
Year to date precipitation 47.04 42.34  
Sea Level Pressure  
Sea Level Pressure 29.68 in    
Wind  
Wind Speed 9 mph (SSW)    
Max Wind Speed 20 mph    
Max Gust Speed 27 mph    
Visibility 4 miles    
Events Rain    
T = Trace of Precipitation, MM = Missing Value Source: NWS Daily Summary

Daily Weather History Graph

Daily Weather History Graph

Search for Another Location

Airport or City:

Trip Planner

Search our weather history database for the weather conditions in past years. The results will help you decide how hot, cold, wet, or windy it might be!

Date:

Astronomy

Apr. 24, 2014 Rise Set
Actual Time 6:12 AM PDT 8:21 PM PDT
Civil Twilight 5:38 AM PDT 8:55 PM PDT
Nautical Twilight 4:56 AM PDT 9:37 PM PDT
Astronomical Twilight 4:09 AM PDT 10:24 PM PDT
Moon 3:49 AM PDT (4/24) 3:23 PM PDT (4/24)
Length of Visible Light 15h 17m
Length of Day
14h 09m
Waning Crescent, 23% of the Moon is Illuminated
Apr 24
Waning Crescent
Apr 28
New
May 6
First Quarter
May 14
Full
May 21
Last Quarter

Hourly Weather History & Observations

Time (PDT) Temp. Windchill Dew Point Humidity Pressure Visibility Wind Dir Wind Speed Gust Speed Precip Events Conditions
12:07 AM 50.0 °F - 50.0 °F 100% 29.51 in 0.8 mi South 12.7 mph 20.7 mph 0.04 in Rain Light Rain
12:28 AM 51.1 °F - 50.0 °F 96% 29.51 in 1.0 mi South 6.9 mph - 0.08 in Rain Light Rain
12:35 AM 51.1 °F - 50.0 °F 96% 29.51 in 1.0 mi SSW 12.7 mph 21.9 mph 0.09 in Rain Light Rain
12:53 AM 51.1 °F - 51.1 °F 100% 29.51 in 1.2 mi SSW 11.5 mph 19.6 mph 0.11 in Rain Light Rain
1:13 AM 51.1 °F - 51.1 °F 100% 29.52 in 1.5 mi SSW 12.7 mph 19.6 mph 0.00 in Rain Light Rain
1:36 AM 51.1 °F - 51.1 °F 100% 29.52 in 2.0 mi SSW 12.7 mph 18.4 mph 0.01 in Rain Light Rain
1:53 AM 51.1 °F - 51.1 °F 100% 29.53 in 1.2 mi SSW 11.5 mph 20.7 mph 0.02 in Rain Light Rain
2:16 AM 51.1 °F - 50.0 °F 96% 29.53 in 2.0 mi SSW 15.0 mph 24.2 mph 0.02 in Rain Light Rain
2:25 AM 51.1 °F - 50.0 °F 96% 29.53 in 4.0 mi SSW 15.0 mph 25.3 mph 0.02 in   Overcast
2:53 AM 50.0 °F - 50.0 °F 100% 29.55 in 1.8 mi WSW 16.1 mph 26.5 mph 0.03 in Rain Light Rain
3:06 AM 48.9 °F - 48.0 °F 97% 29.55 in 3.0 mi WSW 18.4 mph 27.6 mph 0.00 in Rain Light Rain
3:15 AM 48.9 °F - 48.0 °F 97% 29.55 in 6.0 mi SW 15.0 mph - 0.00 in   Overcast
3:37 AM 48.9 °F - 48.0 °F 97% 29.56 in 2.5 mi SW 11.5 mph - 0.00 in Rain Light Rain
3:46 AM 48.0 °F - 48.0 °F 100% 29.56 in 1.8 mi SW 11.5 mph 23.0 mph 0.01 in Rain Light Rain
3:49 AM 48.2 °F - 48.2 °F 100% 29.56 in 2.0 mi SW 13.8 mph 20.7 mph 0.01 in Rain Light Rain
3:53 AM 48.0 °F - 46.9 °F 96% 29.57 in 2.5 mi SW 13.8 mph 20.7 mph 0.01 in Rain Light Rain
4:00 AM 48.0 °F - 46.9 °F 96% 29.57 in 5.0 mi SW 9.2 mph - 0.00 in   Overcast
4:53 AM 48.0 °F - 46.0 °F 93% 29.58 in 7.0 mi SW 9.2 mph - 0.00 in   Overcast
5:53 AM 48.0 °F - 45.0 °F 89% 29.60 in 7.0 mi South 6.9 mph - N/A   Overcast
6:11 AM 48.0 °F - 45.0 °F 89% 29.60 in 6.0 mi SSW 9.2 mph 17.3 mph N/A   Overcast
6:24 AM 48.0 °F - 45.0 °F 89% 29.61 in 6.0 mi South 8.1 mph - N/A   Overcast
6:46 AM 48.0 °F - 45.0 °F 89% 29.61 in 2.0 mi SSW 8.1 mph - 0.00 in Rain Light Rain
6:48 AM 48.2 °F - 46.4 °F 93% 29.61 in 1.2 mi Variable 6.9 mph - 0.00 in Rain Rain
6:53 AM 46.9 °F - 46.0 °F 97% 29.62 in 0.8 mi SSW 5.8 mph - 0.03 in Rain Heavy Rain
7:03 AM 46.9 °F - 46.0 °F 97% 29.61 in 1.2 mi SSW 8.1 mph - 0.02 in Rain Rain
7:13 AM 46.9 °F - 46.0 °F 97% 29.62 in 1.5 mi SSW 6.9 mph - 0.05 in Rain Light Rain
7:21 AM 46.9 °F - 46.0 °F 97% 29.62 in 0.8 mi SW 9.2 mph 18.4 mph 0.08 in Rain Heavy Rain
7:29 AM 46.9 °F - 46.0 °F 97% 29.62 in 1.8 mi SSW 8.1 mph - 0.13 in Rain Light Rain
7:31 AM 48.0 °F - 46.0 °F 93% 29.62 in 3.0 mi SSW 8.1 mph - 0.13 in Rain Light Rain
7:45 AM 48.0 °F - 46.9 °F 96% 29.62 in 5.0 mi South 12.7 mph - 0.13 in   Overcast
7:53 AM 48.0 °F - 46.9 °F 96% 29.63 in 2.5 mi SSW 6.9 mph 18.4 mph 0.13 in Rain Light Rain
8:07 AM 48.0 °F - 46.9 °F 96% 29.63 in 1.2 mi SSW 9.2 mph - 0.02 in Rain Light Rain
8:14 AM 48.0 °F - 46.9 °F 96% 29.63 in 0.8 mi SSW 9.2 mph 19.6 mph 0.05 in Rain Heavy Rain
8:19 AM 48.0 °F - 46.9 °F 96% 29.64 in 1.5 mi WSW 11.5 mph 19.6 mph 0.05 in Rain Light Rain
8:21 AM 48.0 °F - 46.9 °F 96% 29.64 in 2.0 mi WSW 13.8 mph 20.7 mph 0.06 in Rain Light Rain
8:44 AM 46.9 °F - 46.9 °F 100% 29.65 in 5.0 mi SSW 8.1 mph - 0.07 in Rain Light Rain
8:53 AM 48.0 °F - 46.9 °F 96% 29.66 in 6.0 mi SSW 10.4 mph - 0.07 in   Overcast
9:07 AM 48.0 °F - 46.0 °F 93% 29.66 in 2.0 mi SW 10.4 mph 18.4 mph 0.00 in Rain Light Rain
9:15 AM 48.0 °F - 46.0 °F 93% 29.67 in 7.0 mi SW 9.2 mph - 0.00 in   Overcast
9:25 AM 48.9 °F - 46.9 °F 93% 29.68 in 6.0 mi SW 8.1 mph - 0.00 in   Overcast
9:33 AM 48.0 °F - 46.9 °F 96% 29.68 in 2.5 mi SSW 8.1 mph - 0.01 in Rain Rain
9:39 AM 48.0 °F - 46.9 °F 96% 29.68 in 3.0 mi SSW 9.2 mph - 0.01 in Rain Light Rain
9:53 AM 48.9 °F - 48.0 °F 97% 29.69 in 6.0 mi SW 10.4 mph - 0.01 in   Overcast
10:31 AM 50.0 °F - 48.0 °F 93% 29.71 in 6.0 mi SW 8.1 mph - 0.00 in   Overcast
10:53 AM 50.0 °F - 46.9 °F 89% 29.73 in 6.0 mi SW 10.4 mph - 0.00 in   Overcast
11:06 AM 50.0 °F - 46.0 °F 86% 29.74 in 6.0 mi SSW 10.4 mph 20.7 mph N/A   Overcast
11:17 AM 48.9 °F - 45.0 °F 86% 29.74 in 7.0 mi SW 10.4 mph 20.7 mph N/A   Overcast
11:30 AM 48.0 °F - 46.0 °F 93% 29.75 in 1.8 mi WSW 13.8 mph 19.6 mph 0.00 in Rain Light Rain
11:39 AM 48.0 °F - 46.0 °F 93% 29.76 in 2.0 mi SSW 9.2 mph - 0.03 in Rain Light Rain
11:48 AM 48.2 °F - 46.4 °F 93% 29.76 in 4.0 mi SSW 8.1 mph - 0.03 in   Overcast
11:53 AM 48.0 °F - 46.9 °F 96% 29.76 in 3.0 mi Variable 6.9 mph - 0.03 in Rain Light Rain
12:53 PM 48.9 °F - 46.9 °F 93% 29.79 in 3.0 mi SW 9.2 mph - 0.00 in Rain Light Rain
1:12 PM 50.0 °F - 46.0 °F 86% 29.79 in 6.0 mi SSW 9.2 mph - 0.01 in   Overcast
1:53 PM 51.1 °F - 45.0 °F 80% 29.81 in 5.0 mi SW 12.7 mph 20.7 mph 0.01 in Rain Light Rain
2:53 PM 52.0 °F - 46.0 °F 80% 29.83 in 6.0 mi SW 11.5 mph 18.4 mph 0.00 in   Haze
3:13 PM 51.1 °F - 45.0 °F 80% 29.83 in 6.0 mi SW 10.4 mph 20.7 mph N/A   Haze
3:29 PM 50.0 °F - 43.0 °F 77% 29.83 in 6.0 mi SSW 11.5 mph 20.7 mph 0.00 in Rain Light Rain
3:53 PM 52.0 °F - 44.1 °F 74% 29.84 in 7.0 mi SW 12.7 mph - 0.00 in   Overcast
4:49 PM 51.8 °F - 44.6 °F 76% 29.84 in 6.0 mi SSW 10.4 mph 19.6 mph N/A   Haze
4:53 PM 52.0 °F - 44.1 °F 74% 29.84 in 6.0 mi SW 11.5 mph 19.6 mph N/A   Haze
5:43 PM 50.0 °F - 42.1 °F 74% 29.85 in 6.0 mi SW 9.2 mph 19.6 mph N/A   Haze
5:53 PM 50.0 °F - 43.0 °F 77% 29.85 in 5.0 mi SSW 9.2 mph - N/A   Haze
6:53 PM 51.1 °F - 42.1 °F 71% 29.86 in 5.0 mi SW 6.9 mph - 0.00 in   Haze
7:28 PM 50.0 °F - 44.1 °F 80% 29.86 in 5.0 mi SW 9.2 mph - N/A   Haze
7:46 PM 48.0 °F - 42.1 °F 80% 29.86 in 6.0 mi SSW 5.8 mph - N/A   Haze
7:53 PM 48.0 °F - 42.1 °F 80% 29.87 in 5.0 mi SW 8.1 mph - N/A   Haze
8:53 PM 46.0 °F 43.9 °F 41.0 °F 83% 29.87 in 7.0 mi SW 4.6 mph - N/A   Scattered Clouds
9:53 PM 44.1 °F 42.5 °F 41.0 °F 89% 29.88 in 7.0 mi East 3.5 mph - 0.00 in   Partly Cloudy
10:53 PM 44.1 °F 41.5 °F 39.9 °F 85% 29.88 in 5.0 mi SW 4.6 mph - 0.03 in Rain Light Rain
11:53 PM 43.0 °F 41.3 °F 42.1 °F 97% 29.89 in 6.0 mi East 3.5 mph - 0.03 in Rain Light Rain